Time,TemperatureF,DewpointF,PressureIn,WindDirection,WindDirectionDegrees,WindSpeedMPH,WindSpeedGustMPH,Humidity,HourlyPrecipIn,Conditions,Clouds,dailyrainin,SoftwareType,DateUTC
2013-01-30 00:04:00,71.4,67.0,29.59,SE,135,11.2,15.0,86,0.00,RA,,0.00,WeatherDisplay:10.37,2013-01-30 06:04:00,
2013-01-30 00:09:00,71.4,67.0,29.56,SSE,158,7.1,10.5,86,0.00,RA,,0.00,WeatherDisplay:10.37,2013-01-30 06:09:00,
2013-01-30 00:14:00,71.2,66.8,29.56,WSW,248,6.9,21.9,86,0.00,CLR,,0.00,WeatherDisplay:10.37,2013-01-30 06:14:00,
2013-01-30 00:19:00,71.4,67.3,29.56,SE,135,9.2,10.7,87,0.00,CLR,,0.00,WeatherDisplay:10.37,2013-01-30 06:19:00,
2013-01-30 00:24:00,71.4,67.3,29.56,SSW,202,10.9,12.3,87,0.00,CLR,,0.00,WeatherDisplay:10.37,2013-01-30 06:24:00,
2013-01-30 00:29:00,71.4,67.0,29.56,South,180,10.0,12.8,86,0.00,CLR,,0.00,WeatherDisplay:10.37,2013-01-30 06:29:00,
2013-01-30 00:34:00,71.4,66.7,29.56,South,180,8.5,12.7,85,0.00,CLR,,0.00,WeatherDisplay:10.37,2013-01-30 06:34:00,
2013-01-30 00:39:00,71.4,66.7,29.56,SSE,158,12.5,17.3,85,0.00,CLR,,0.00,WeatherDisplay:10.37,2013-01-30 06:39:00,
2013-01-30 00:45:00,71.4,66.7,29.56,WSW,248,9.0,15.0,85,0.00,CLR,,0.00,WeatherDisplay:10.37,2013-01-30 06:45:00,
2013-01-30 00:50:00,71.4,67.0,29.56,SSE,158,7.8,15.0,86,0.04,RA,,0.04,WeatherDisplay:10.37,2013-01-30 06:50:00,
2013-01-30 00:56:00,71.2,66.8,29.56,SSW,202,9.2,16.1,86,0.04,RA,,0.04,WeatherDisplay:10.37,2013-01-30 06:56:00,
2013-01-30 01:01:00,71.2,66.8,29.56,SSE,158,11.2,15.2,86,0.04,CLR,,0.04,WeatherDisplay:10.37,2013-01-30 07:01:00,
2013-01-30 01:06:00,71.2,66.8,29.56,SSW,202,7.1,12.7,86,0.04,CLR,,0.04,WeatherDisplay:10.37,2013-01-30 07:06:00,
2013-01-30 01:11:00,71.2,66.8,29.56,South,180,11.8,16.1,86,0.04,CLR,,0.04,WeatherDisplay:10.37,2013-01-30 07:11:00,
2013-01-30 01:16:00,71.2,67.2,29.56,SSE,158,9.4,15.0,87,0.04,CLR,,0.04,WeatherDisplay:10.37,2013-01-30 07:16:00,
2013-01-30 01:21:00,71.2,67.2,29.56,SE,135,10.9,13.8,87,0.04,CLR,,0.04,WeatherDisplay:10.37,2013-01-30 07:21:00,
2013-01-30 01:26:00,71.2,67.2,29.56,SW,225,7.8,12.7,87,0.04,CLR,,0.04,WeatherDisplay:10.37,2013-01-30 07:26:00,
2013-01-30 01:31:00,71.2,67.2,29.56,South,180,11.2,15.4,87,0.04,CLR,,0.04,WeatherDisplay:10.37,2013-01-30 07:31:00,
2013-01-30 01:36:00,71.4,67.3,29.56,SSW,202,8.5,13.8,87,0.04,CLR,,0.04,WeatherDisplay:10.37,2013-01-30 07:36:00,
2013-01-30 01:41:00,71.4,67.3,29.56,SSE,158,12.8,17.3,87,0.04,CLR,,0.04,WeatherDisplay:10.37,2013-01-30 07:41:00,
2013-01-30 01:47:00,71.4,67.3,29.56,SSE,158,9.4,17.0,87,0.04,CLR,,0.04,WeatherDisplay:10.37,2013-01-30 07:47:00,
2013-01-30 01:52:00,71.4,67.3,29.56,SE,135,8.5,17.3,87,0.00,CLR,,0.04,WeatherDisplay:10.37,2013-01-30 07:52:00,
2013-01-30 01:57:00,71.4,67.3,29.56,South,180,10.5,16.1,87,0.00,CLR,,0.04,WeatherDisplay:10.37,2013-01-30 07:57:00,
2013-01-30 02:02:00,71.4,67.3,29.56,SSE,158,12.5,17.5,87,0.00,CLR,,0.04,WeatherDisplay:10.37,2013-01-30 08:02:00,
2013-01-30 02:07:00,71.6,67.2,29.56,South,180,12.1,13.8,86,0.00,CLR,,0.04,WeatherDisplay:10.37,2013-01-30 08:07:00,
2013-01-30 02:12:00,71.6,67.2,29.53,South,180,7.8,12.7,86,0.00,CLR,,0.04,WeatherDisplay:10.37,2013-01-30 08:12:00,
2013-01-30 02:17:00,71.6,66.8,29.53,SSW,202,16.1,23.0,85,0.00,CLR,,0.04,WeatherDisplay:10.37,2013-01-30 08:17:00,
2013-01-30 02:22:00,71.6,66.8,29.53,SSE,158,14.3,17.5,85,0.00,CLR,,0.04,WeatherDisplay:10.37,2013-01-30 08:22:00,
2013-01-30 02:27:00,71.8,66.7,29.53,SSW,202,11.2,15.4,84,0.00,CLR,,0.04,WeatherDisplay:10.37,2013-01-30 08:27:00,
2013-01-30 02:32:00,71.8,66.7,29.53,SSW,202,13.0,13.8,84,0.00,CLR,,0.04,WeatherDisplay:10.37,2013-01-30 08:32:00,
2013-01-30 02:37:00,72.0,66.5,29.53,South,180,6.7,10.4,83,0.00,CLR,,0.04,WeatherDisplay:10.37,2013-01-30 08:37:00,
2013-01-30 02:42:00,72.0,66.5,29.53,SE,135,9.8,15.0,83,0.00,CLR,,0.04,WeatherDisplay:10.37,2013-01-30 08:42:00,
2013-01-30 02:47:00,72.0,66.2,29.53,SSE,158,14.0,19.7,82,0.00,CLR,,0.04,WeatherDisplay:10.37,2013-01-30 08:47:00,
2013-01-30 02:52:00,72.1,66.0,29.53,SW,225,14.3,25.3,81,0.00,CLR,,0.04,WeatherDisplay:10.37,2013-01-30 08:52:00,
2013-01-30 02:57:00,72.1,66.0,29.53,SSE,158,14.5,15.4,81,0.00,CLR,,0.04,WeatherDisplay:10.37,2013-01-30 08:57:00,
2013-01-30 03:02:00,72.1,65.6,29.53,SSE,158,15.9,18.5,80,0.00,CLR,,0.04,WeatherDisplay:10.37,2013-01-30 09:02:00,
2013-01-30 03:07:00,72.1,65.6,29.53,South,180,9.4,15.0,80,0.00,CLR,,0.04,WeatherDisplay:10.37,2013-01-30 09:07:00,
2013-01-30 03:12:00,72.1,65.6,29.53,SSE,158,8.5,19.6,80,0.00,CLR,,0.04,WeatherDisplay:10.37,2013-01-30 09:12:00,
2013-01-30 03:17:00,72.1,65.3,29.53,SW,225,13.7,18.4,79,0.00,CLR,,0.04,WeatherDisplay:10.37,2013-01-30 09:17:00,
2013-01-30 03:22:00,72.1,65.3,29.53,South,180,14.0,20.1,79,0.00,CLR,,0.04,WeatherDisplay:10.37,2013-01-30 09:22:00,
2013-01-30 03:27:00,72.1,65.3,29.53,SSW,202,10.2,13.8,79,0.00,CLR,,0.04,WeatherDisplay:10.37,2013-01-30 09:27:00,
2013-01-30 03:32:00,72.1,65.3,29.53,SSE,158,12.1,25.3,79,0.00,CLR,,0.04,WeatherDisplay:10.37,2013-01-30 09:32:00,
2013-01-30 03:37:00,72.1,65.3,29.53,East,90,8.5,15.0,79,0.00,CLR,,0.04,WeatherDisplay:10.37,2013-01-30 09:37:00,
2013-01-30 03:42:00,72.1,65.3,29.50,SSW,202,10.2,14.7,79,0.00,CLR,,0.04,WeatherDisplay:10.37,2013-01-30 09:42:00,
2013-01-30 03:47:00,72.1,64.9,29.50,SSE,158,11.2,15.2,78,0.00,CLR,,0.04,WeatherDisplay:10.37,2013-01-30 09:47:00,
2013-01-30 03:52:00,72.1,64.9,29.50,SSE,158,9.0,13.8,78,0.00,CLR,,0.04,WeatherDisplay:10.37,2013-01-30 09:52:00,
2013-01-30 03:57:00,72.1,64.9,29.50,South,180,11.2,21.9,78,0.00,CLR,,0.04,WeatherDisplay:10.37,2013-01-30 09:57:00,
2013-01-30 04:02:00,72.3,65.1,29.50,SSE,158,12.5,19.7,78,0.00,CLR,,0.04,WeatherDisplay:10.37,2013-01-30 10:02:00,
2013-01-30 04:07:00,72.3,64.7,29.50,South,180,14.7,17.6,77,0.00,CLR,,0.04,WeatherDisplay:10.37,2013-01-30 10:07:00,
2013-01-30 04:12:00,72.3,64.3,29.50,South,180,11.4,22.3,76,0.00,CLR,,0.04,WeatherDisplay:10.37,2013-01-30 10:12:00,
2013-01-30 04:17:00,72.3,64.3,29.50,SSW,202,13.7,17.6,76,0.00,CLR,,0.04,WeatherDisplay:10.37,2013-01-30 10:17:00,
2013-01-30 04:22:00,72.3,64.3,29.50,SSE,158,13.8,17.3,76,0.00,CLR,,0.04,WeatherDisplay:10.37,2013-01-30 10:22:00,
2013-01-30 04:27:00,72.3,64.3,29.47,SSE,158,10.7,22.1,76,0.00,CLR,,0.04,WeatherDisplay:10.37,2013-01-30 10:27:00,
2013-01-30 04:32:00,72.1,64.2,29.47,SSW,202,10.2,10.9,76,0.00,CLR,,0.04,WeatherDisplay:10.37,2013-01-30 10:32:00,
2013-01-30 04:37:00,72.1,64.5,29.47,SW,225,12.1,17.6,77,0.00,CLR,,0.04,WeatherDisplay:10.37,2013-01-30 10:37:00,
2013-01-30 04:42:00,72.0,64.4,29.47,SW,225,12.5,17.3,77,0.00,CLR,,0.04,WeatherDisplay:10.37,2013-01-30 10:42:00,
2013-01-30 04:47:00,72.0,64.4,29.47,South,180,12.8,17.3,77,0.00,CLR,,0.04,WeatherDisplay:10.37,2013-01-30 10:47:00,
2013-01-30 04:52:00,72.0,64.4,29.47,South,180,11.8,16.1,77,0.00,CLR,,0.04,WeatherDisplay:10.37,2013-01-30 10:52:00,
2013-01-30 04:57:00,72.0,64.4,29.47,South,180,10.2,15.2,77,0.00,CLR,,0.04,WeatherDisplay:10.37,2013-01-30 10:57:00,
2013-01-30 05:02:00,72.1,64.5,29.47,SSW,202,13.2,19.6,77,0.00,CLR,,0.04,WeatherDisplay:10.37,2013-01-30 11:02:00,
2013-01-30 05:07:00,72.0,64.4,29.47,SSW,202,9.8,17.3,77,0.00,CLR,,0.04,WeatherDisplay:10.37,2013-01-30 11:07:00,
2013-01-30 05:12:00,72.0,64.4,29.47,South,180,7.4,9.2,77,0.00,CLR,,0.04,WeatherDisplay:10.37,2013-01-30 11:12:00,
2013-01-30 05:17:00,72.0,64.4,29.47,South,180,12.3,16.3,77,0.00,CLR,,0.04,WeatherDisplay:10.37,2013-01-30 11:17:00,
2013-01-30 05:22:00,72.0,64.4,29.47,SSW,202,13.5,15.4,77,0.00,CLR,,0.04,WeatherDisplay:10.37,2013-01-30 11:22:00,
2013-01-30 05:27:00,72.0,64.4,29.47,SSW,202,10.2,18.4,77,0.00,CLR,,0.04,WeatherDisplay:10.37,2013-01-30 11:27:00,
2013-01-30 05:32:00,72.0,64.4,29.47,SSW,202,9.2,11.5,77,0.00,CLR,,0.04,WeatherDisplay:10.37,2013-01-30 11:32:00,
2013-01-30 05:37:00,72.0,64.4,29.47,SSW,202,13.0,17.3,77,0.00,CLR,,0.04,WeatherDisplay:10.37,2013-01-30 11:37:00,
2013-01-30 05:42:00,72.0,64.4,29.44,South,180,13.7,24.2,77,0.00,CLR,,0.04,WeatherDisplay:10.37,2013-01-30 11:42:00,
2013-01-30 05:47:00,72.0,64.7,29.44,SW,225,10.5,13.0,78,0.00,CLR,,0.04,WeatherDisplay:10.37,2013-01-30 11:47:00,
2013-01-30 05:52:00,72.0,64.7,29.44,South,180,14.5,19.9,78,0.00,CLR,,0.04,WeatherDisplay:10.37,2013-01-30 11:52:00,
2013-01-30 05:57:00,72.0,64.7,29.44,WSW,248,15.2,17.3,78,0.00,CLR,,0.04,WeatherDisplay:10.37,2013-01-30 11:57:00,
2013-01-30 06:02:00,72.0,64.7,29.44,SW,225,9.7,20.7,78,0.00,CLR,,0.04,WeatherDisplay:10.37,2013-01-30 12:02:00,
2013-01-30 06:07:00,72.0,64.4,29.44,ESE,112,16.1,21.0,77,0.00,CLR,,0.04,WeatherDisplay:10.37,2013-01-30 12:07:00,
2013-01-30 06:12:00,72.0,64.4,29.44,SSW,202,10.0,17.6,77,0.00,CLR,,0.04,WeatherDisplay:10.37,2013-01-30 12:12:00,
2013-01-30 06:17:00,72.0,64.4,29.44,South,180,13.7,16.3,77,0.00,CLR,,0.04,WeatherDisplay:10.37,2013-01-30 12:17:00,
2013-01-30 06:22:00,72.1,64.2,29.44,SSW,202,10.9,15.0,76,0.00,CLR,,0.04,WeatherDisplay:10.37,2013-01-30 12:22:00,
2013-01-30 06:27:00,72.1,64.2,29.47,South,180,13.5,19.6,76,0.00,CLR,,0.04,WeatherDisplay:10.37,2013-01-30 12:27:00,
2013-01-30 06:32:00,72.1,64.2,29.47,South,180,12.8,19.9,76,0.00,CLR,,0.04,WeatherDisplay:10.37,2013-01-30 12:32:00,
2013-01-30 06:37:00,72.1,64.2,29.47,South,180,11.8,21.9,76,0.00,CLR,,0.04,WeatherDisplay:10.37,2013-01-30 12:37:00,
2013-01-30 06:42:00,72.1,64.2,29.44,SSE,158,16.6,21.9,76,0.00,CLR,,0.04,WeatherDisplay:10.37,2013-01-30 12:42:00,
2013-01-30 06:47:00,72.1,64.2,29.44,South,180,14.5,15.0,76,0.00,CLR,,0.04,WeatherDisplay:10.37,2013-01-30 12:47:00,
2013-01-30 06:52:00,72.3,63.9,29.44,SSW,202,14.3,20.7,75,0.00,CLR,,0.04,WeatherDisplay:10.37,2013-01-30 12:52:00,
2013-01-30 06:57:00,72.3,63.9,29.47,South,180,8.7,12.8,75,0.00,CLR,,0.04,WeatherDisplay:10.37,2013-01-30 12:57:00,
2013-01-30 07:02:00,72.3,63.9,29.47,SSW,202,13.0,23.0,75,0.00,CLR,,0.04,WeatherDisplay:10.37,2013-01-30 13:02:00,
2013-01-30 07:07:00,72.3,63.9,29.47,South,180,10.9,12.3,75,0.00,CLR,,0.04,WeatherDisplay:10.37,2013-01-30 13:07:00,
2013-01-30 07:12:00,72.1,63.8,29.44,SE,135,16.6,17.0,75,0.00,CLR,,0.04,WeatherDisplay:10.37,2013-01-30 13:12:00,
2013-01-30 07:17:00,72.1,63.8,29.44,South,180,11.8,34.5,75,0.00,CLR,,0.04,WeatherDisplay:10.37,2013-01-30 13:17:00,
2013-01-30 07:22:00,72.1,63.8,29.44,South,180,12.3,19.6,75,0.00,CLR,,0.04,WeatherDisplay:10.37,2013-01-30 13:22:00,
2013-01-30 07:27:00,72.1,63.8,29.44,South,180,14.0,17.5,75,0.00,CLR,,0.04,WeatherDisplay:10.37,2013-01-30 13:27:00,
2013-01-30 07:32:00,72.1,63.8,29.44,SW,225,13.0,17.6,75,0.00,CLR,,0.04,WeatherDisplay:10.37,2013-01-30 13:32:00,
2013-01-30 07:37:00,72.1,63.8,29.44,SSE,158,13.2,16.1,75,0.00,CLR,,0.04,WeatherDisplay:10.37,2013-01-30 13:37:00,
2013-01-30 07:42:00,72.3,63.9,29.44,South,180,10.5,19.6,75,0.00,CLR,,0.04,WeatherDisplay:10.37,2013-01-30 13:42:00,
2013-01-30 07:47:00,72.3,63.6,29.44,SSE,158,9.8,15.0,74,0.00,CLR,,0.04,WeatherDisplay:10.37,2013-01-30 13:47:00,
2013-01-30 07:52:00,72.3,63.6,29.44,SSW,202,13.0,17.3,74,0.00,CLR,,0.04,WeatherDisplay:10.37,2013-01-30 13:52:00,
2013-01-30 07:57:00,72.3,63.9,29.44,SSW,202,9.7,19.7,75,0.00,CLR,,0.04,WeatherDisplay:10.37,2013-01-30 13:57:00,
2013-01-30 08:02:00,72.3,63.9,29.44,SSW,202,9.4,12.7,75,0.00,CLR,,0.04,WeatherDisplay:10.37,2013-01-30 14:02:00,
2013-01-30 08:07:00,72.3,63.6,29.44,South,180,11.4,12.8,74,0.00,CLR,,0.04,WeatherDisplay:10.37,2013-01-30 14:07:00,
2013-01-30 08:12:00,72.5,63.7,29.47,SSW,202,13.0,23.0,74,0.00,CLR,,0.04,WeatherDisplay:10.37,2013-01-30 14:12:00,
2013-01-30 08:17:00,72.5,63.4,29.47,South,180,10.2,17.3,73,0.00,CLR,,0.04,WeatherDisplay:10.37,2013-01-30 14:17:00,
2013-01-30 08:22:00,72.7,63.5,29.47,SW,225,15.4,25.5,73,0.00,CLR,,0.04,WeatherDisplay:10.37,2013-01-30 14:22:00,
2013-01-30 08:27:00,72.7,63.1,29.47,South,180,17.8,24.6,72,0.00,CLR,,0.04,WeatherDisplay:10.37,2013-01-30 14:27:00,
2013-01-30 08:32:00,72.7,63.1,29.47,SSW,202,12.8,19.4,72,0.00,CLR,,0.04,WeatherDisplay:10.37,2013-01-30 14:32:00,
2013-01-30 08:37:00,72.7,63.1,29.47,South,180,14.3,27.0,72,0.00,CLR,,0.04,WeatherDisplay:10.37,2013-01-30 14:37:00,
2013-01-30 08:42:00,72.7,63.1,29.44,SSW,202,6.7,13.8,72,0.00,CLR,,0.04,WeatherDisplay:10.37,2013-01-30 14:42:00,
2013-01-30 08:47:00,72.7,63.1,29.44,SW,225,13.5,26.3,72,0.00,CLR,,0.04,WeatherDisplay:10.37,2013-01-30 14:47:00,
2013-01-30 08:52:00,72.7,63.1,29.44,South,180,14.5,25.3,72,0.00,CLR,,0.04,WeatherDisplay:10.37,2013-01-30 14:52:00,
2013-01-30 08:57:00,72.9,63.3,29.44,SSW,202,14.5,20.1,72,0.00,CLR,,0.04,WeatherDisplay:10.37,2013-01-30 14:57:00,
2013-01-30 09:02:00,72.7,63.1,29.44,SSW,202,16.8,26.5,72,0.00,CLR,,0.04,WeatherDisplay:10.37,2013-01-30 15:02:00,
2013-01-30 09:07:00,72.5,63.0,29.44,SW,225,11.8,19.6,72,0.00,CLR,,0.04,WeatherDisplay:10.37,2013-01-30 15:07:00,
2013-01-30 09:12:00,72.5,63.0,29.44,South,180,16.1,21.3,72,0.00,CLR,,0.04,WeatherDisplay:10.37,2013-01-30 15:12:00,
2013-01-30 09:17:00,72.7,63.1,29.44,SSE,158,11.2,23.7,72,0.00,CLR,,0.04,WeatherDisplay:10.37,2013-01-30 15:17:00,
2013-01-30 09:22:00,72.5,63.0,29.44,South,180,18.1,23.0,72,0.00,CLR,,0.04,WeatherDisplay:10.37,2013-01-30 15:22:00,
2013-01-30 09:27:00,72.7,63.1,29.44,SSW,202,15.2,23.0,72,0.00,CLR,,0.04,WeatherDisplay:10.37,2013-01-30 15:27:00,
2013-01-30 09:32:00,72.7,62.7,29.44,SSW,202,11.4,15.0,71,0.00,CLR,,0.04,WeatherDisplay:10.37,2013-01-30 15:32:00,
2013-01-30 09:37:00,72.9,62.9,29.44,South,180,14.7,20.1,71,0.00,CLR,,0.04,WeatherDisplay:10.37,2013-01-30 15:37:00,
2013-01-30 09:42:00,73.0,63.1,29.44,SSE,158,12.8,27.0,71,0.00,CLR,,0.04,WeatherDisplay:10.37,2013-01-30 15:42:00,
2013-01-30 09:47:00,73.4,62.6,29.44,South,180,15.4,23.0,69,0.00,CLR,,0.04,WeatherDisplay:10.37,2013-01-30 15:47:00,
2013-01-30 09:52:00,73.4,62.2,29.44,SSW,202,15.6,22.3,68,0.00,CLR,,0.04,WeatherDisplay:10.37,2013-01-30 15:52:00,
2013-01-30 09:57:00,73.2,62.0,29.44,South,180,13.5,20.1,68,0.00,CLR,,0.04,WeatherDisplay:10.37,2013-01-30 15:57:00,
2013-01-30 10:02:00,73.2,62.0,29.44,SSW,202,12.5,23.0,68,0.00,CLR,,0.04,WeatherDisplay:10.37,2013-01-30 16:02:00,
2013-01-30 10:07:00,73.2,62.0,29.44,SSW,202,11.4,19.6,68,0.00,CLR,,0.04,WeatherDisplay:10.37,2013-01-30 16:07:00,
2013-01-30 10:12:00,73.2,62.0,29.41,SSW,202,13.2,17.6,68,0.00,CLR,,0.04,WeatherDisplay:10.37,2013-01-30 16:12:00,
2013-01-30 10:17:00,73.0,61.9,29.41,SSW,202,11.2,19.4,68,0.00,CLR,,0.04,WeatherDisplay:10.37,2013-01-30 16:17:00,
2013-01-30 10:22:00,72.3,63.2,29.41,South,180,12.8,19.4,73,0.00,CLR,,0.04,WeatherDisplay:10.37,2013-01-30 16:22:00,
2013-01-30 10:27:00,72.0,63.6,29.41,SSE,158,14.7,21.9,75,0.00,CLR,,0.04,WeatherDisplay:10.37,2013-01-30 16:27:00,
2013-01-30 10:32:00,71.8,63.8,29.44,SSE,158,12.5,15.4,76,0.00,CLR,,0.04,WeatherDisplay:10.37,2013-01-30 16:32:00,
2013-01-30 10:37:00,71.8,64.2,29.44,South,180,16.3,27.6,77,0.00,CLR,,0.04,WeatherDisplay:10.37,2013-01-30 16:37:00,
2013-01-30 10:42:00,71.8,64.5,29.44,SSW,202,13.7,20.1,78,0.00,CLR,,0.04,WeatherDisplay:10.37,2013-01-30 16:42:00,
2013-01-30 10:47:00,71.8,64.5,29.41,SSE,158,12.8,20.7,78,0.00,CLR,,0.04,WeatherDisplay:10.37,2013-01-30 16:47:00,
2013-01-30 10:52:00,71.6,64.4,29.41,South,180,17.5,25.5,78,0.00,CLR,,0.04,WeatherDisplay:10.37,2013-01-30 16:52:00,
2013-01-30 10:57:00,71.8,64.5,29.41,West,270,16.1,16.1,78,0.00,CLR,,0.04,WeatherDisplay:10.37,2013-01-30 16:57:00,
2013-01-30 11:02:00,66.2,48.6,29.47,West,270,16.6,20.7,53,0.00,CLR,,0.04,WeatherDisplay:10.37,2013-01-30 17:02:00,
2013-01-30 11:07:00,64.0,50.3,29.47,West,270,11.2,15.0,61,0.00,CLR,,0.04,WeatherDisplay:10.37,2013-01-30 17:07:00,
2013-01-30 11:12:00,63.1,52.4,29.47,West,270,6.0,6.9,68,0.00,CLR,,0.04,WeatherDisplay:10.37,2013-01-30 17:12:00,
2013-01-30 11:17:00,62.8,53.6,29.47,NW,315,9.7,12.5,72,0.00,CLR,,0.04,WeatherDisplay:10.37,2013-01-30 17:17:00,
2013-01-30 11:22:00,61.9,52.4,29.47,West,270,8.7,10.9,71,0.00,CLR,,0.04,WeatherDisplay:10.37,2013-01-30 17:22:00,
2013-01-30 11:27:00,61.5,52.0,29.47,WNW,292,7.6,10.2,71,0.00,CLR,,0.04,WeatherDisplay:10.37,2013-01-30 17:27:00,
2013-01-30 11:32:00,61.3,52.2,29.47,West,270,9.0,10.7,72,0.00,CLR,,0.04,WeatherDisplay:10.37,2013-01-30 17:32:00,
2013-01-30 11:37:00,61.2,52.8,29.47,West,270,7.1,10.4,74,0.00,CLR,,0.04,WeatherDisplay:10.37,2013-01-30 17:37:00,
2013-01-30 11:42:00,61.0,53.0,29.47,NW,315,5.9,10.9,75,0.00,CLR,,0.04,WeatherDisplay:10.37,2013-01-30 17:42:00,
2013-01-30 11:47:00,60.4,52.8,29.47,WNW,292,10.7,15.0,76,0.00,CLR,,0.04,WeatherDisplay:10.37,2013-01-30 17:47:00,
2013-01-30 11:52:00,59.0,46.8,29.47,WNW,292,13.0,16.6,64,0.00,CLR,,0.04,WeatherDisplay:10.37,2013-01-30 17:52:00,
2013-01-30 11:57:00,58.3,47.0,29.47,West,270,13.8,16.1,66,0.00,CLR,,0.04,WeatherDisplay:10.37,2013-01-30 17:57:00,
2013-01-30 12:02:00,57.9,48.2,29.47,West,270,10.0,11.5,70,0.00,CLR,,0.04,WeatherDisplay:10.37,2013-01-30 18:02:00,
2013-01-30 12:07:00,57.2,47.9,29.47,West,270,10.7,12.7,71,0.00,CLR,,0.04,WeatherDisplay:10.37,2013-01-30 18:07:00,
2013-01-30 12:12:00,56.8,48.3,29.47,West,270,7.6,15.2,73,0.00,CLR,,0.04,WeatherDisplay:10.37,2013-01-30 18:12:00,
2013-01-30 12:17:00,56.3,47.8,29.47,West,270,12.1,12.7,73,0.00,CLR,,0.04,WeatherDisplay:10.37,2013-01-30 18:17:00,
2013-01-30 12:22:00,55.8,46.9,29.47,WNW,292,9.0,15.0,72,0.00,CLR,,0.04,WeatherDisplay:10.37,2013-01-30 18:22:00,
2013-01-30 12:27:00,55.2,46.7,29.47,West,270,14.5,14.5,73,0.00,CLR,,0.04,WeatherDisplay:10.37,2013-01-30 18:27:00,
2013-01-30 12:32:00,54.3,43.2,29.47,WNW,292,8.5,15.0,66,0.00,CLR,,0.04,WeatherDisplay:10.37,2013-01-30 18:32:00,
2013-01-30 12:37:00,53.6,42.9,29.47,WNW,292,7.4,8.7,67,0.00,CLR,,0.04,WeatherDisplay:10.37,2013-01-30 18:37:00,
2013-01-30 12:42:00,53.4,43.9,29.47,WNW,292,6.0,10.2,70,0.00,CLR,,0.04,WeatherDisplay:10.37,2013-01-30 18:42:00,
2013-01-30 12:47:00,53.1,43.2,29.50,West,270,7.6,10.4,69,0.00,CLR,,0.04,WeatherDisplay:10.37,2013-01-30 18:47:00,
2013-01-30 12:52:00,52.9,43.7,29.50,WNW,292,5.9,8.7,71,0.00,CLR,,0.04,WeatherDisplay:10.37,2013-01-30 18:52:00,
2013-01-30 12:57:00,52.9,44.1,29.50,WNW,292,5.4,5.9,72,0.00,CLR,,0.04,WeatherDisplay:10.37,2013-01-30 18:57:00,
2013-01-30 13:02:00,52.7,44.6,29.47,West,270,6.7,8.5,74,0.00,CLR,,0.04,WeatherDisplay:10.37,2013-01-30 19:02:00,
2013-01-30 13:07:00,52.5,44.8,29.47,NW,315,6.2,9.2,75,0.00,CLR,,0.04,WeatherDisplay:10.37,2013-01-30 19:07:00,
2013-01-30 13:12:00,52.7,45.7,29.47,West,270,6.4,7.4,77,0.00,CLR,,0.04,WeatherDisplay:10.37,2013-01-30 19:12:00,
2013-01-30 13:17:00,52.9,46.5,29.50,WNW,292,6.0,6.9,79,0.00,CLR,,0.04,WeatherDisplay:10.37,2013-01-30 19:17:00,
2013-01-30 13:22:00,53.1,46.7,29.50,West,270,6.2,8.1,79,0.00,CLR,,0.04,WeatherDisplay:10.37,2013-01-30 19:22:00,
2013-01-30 13:27:00,53.1,46.7,29.50,West,270,6.9,8.1,79,0.00,CLR,,0.04,WeatherDisplay:10.37,2013-01-30 19:27:00,
2013-01-30 13:32:00,53.2,46.6,29.50,West,270,5.6,8.1,78,0.00,CLR,,0.04,WeatherDisplay:10.37,2013-01-30 19:32:00,
2013-01-30 13:37:00,53.2,45.9,29.50,West,270,5.9,10.4,76,0.00,CLR,,0.04,WeatherDisplay:10.37,2013-01-30 19:37:00,
2013-01-30 13:42:00,53.6,45.5,29.50,WNW,292,7.4,10.7,74,0.00,CLR,,0.04,WeatherDisplay:10.37,2013-01-30 19:42:00,
2013-01-30 13:47:00,54.0,45.9,29.50,WNW,292,6.2,9.0,74,0.00,CLR,,0.04,WeatherDisplay:10.37,2013-01-30 19:47:00,
2013-01-30 13:52:00,54.1,44.6,29.50,West,270,9.0,10.7,70,0.00,CLR,,0.04,WeatherDisplay:10.37,2013-01-30 19:52:00,
2013-01-30 13:57:00,54.3,44.7,29.50,West,270,4.5,7.6,70,0.00,CLR,,0.04,WeatherDisplay:10.37,2013-01-30 19:57:00,
2013-01-30 14:02:00,54.3,43.6,29.50,WNW,292,7.8,10.4,67,0.00,CLR,,0.04,WeatherDisplay:10.37,2013-01-30 20:02:00,
2013-01-30 14:07:00,54.3,43.6,29.50,WNW,292,6.9,8.1,67,0.00,CLR,,0.04,WeatherDisplay:10.37,2013-01-30 20:07:00,
2013-01-30 14:12:00,54.5,43.4,29.50,WNW,292,5.9,7.4,66,0.00,CLR,,0.04,WeatherDisplay:10.37,2013-01-30 20:12:00,
2013-01-30 14:17:00,54.5,44.2,29.53,WSW,248,6.7,8.1,68,0.00,CLR,,0.04,WeatherDisplay:10.37,2013-01-30 20:17:00,
2013-01-30 14:22:00,54.5,44.5,29.53,West,270,5.9,10.7,69,0.00,CLR,,0.04,WeatherDisplay:10.37,2013-01-30 20:22:00,
2013-01-30 14:27:00,54.5,44.9,29.53,SSW,202,6.0,6.0,70,0.00,CLR,,0.04,WeatherDisplay:10.37,2013-01-30 20:27:00,
2013-01-30 14:32:00,54.5,45.3,29.53,WSW,248,4.9,6.9,71,0.00,CLR,,0.04,WeatherDisplay:10.37,2013-01-30 20:32:00,
2013-01-30 14:37:00,54.7,45.8,29.53,WSW,248,4.7,8.5,72,0.00,CLR,,0.04,WeatherDisplay:10.37,2013-01-30 20:37:00,
2013-01-30 14:42:00,55.4,46.9,29.53,West,270,3.3,8.1,73,0.00,CLR,,0.04,WeatherDisplay:10.37,2013-01-30 20:42:00,
2013-01-30 14:47:00,55.6,46.7,29.50,West,270,4.7,6.2,72,0.00,CLR,,0.04,WeatherDisplay:10.37,2013-01-30 20:47:00,
2013-01-30 14:52:00,55.6,45.6,29.50,SW,225,5.4,7.1,69,0.00,CLR,,0.04,WeatherDisplay:10.37,2013-01-30 20:52:00,
2013-01-30 14:57:00,55.6,45.2,29.50,West,270,7.1,9.2,68,0.00,CLR,,0.04,WeatherDisplay:10.37,2013-01-30 20:57:00,
2013-01-30 15:02:00,55.8,45.4,29.50,WSW,248,5.6,8.1,68,0.00,CLR,,0.04,WeatherDisplay:10.37,2013-01-30 21:02:00,
2013-01-30 15:07:00,55.6,44.4,29.50,West,270,5.6,9.2,66,0.00,CLR,,0.04,WeatherDisplay:10.37,2013-01-30 21:07:00,
2013-01-30 15:12:00,55.9,45.1,29.50,SSW,202,5.9,8.1,67,0.00,CLR,,0.04,WeatherDisplay:10.37,2013-01-30 21:12:00,
2013-01-30 15:17:00,55.9,44.3,29.50,WSW,248,8.1,8.7,65,0.00,CLR,,0.04,WeatherDisplay:10.37,2013-01-30 21:17:00,
2013-01-30 15:22:00,55.9,44.3,29.50,SW,225,4.3,8.1,65,0.00,CLR,,0.04,WeatherDisplay:10.37,2013-01-30 21:22:00,
2013-01-30 15:27:00,55.9,44.3,29.50,West,270,5.4,9.2,65,0.00,CLR,,0.04,WeatherDisplay:10.37,2013-01-30 21:27:00,
2013-01-30 15:32:00,55.9,44.7,29.50,WSW,248,3.8,5.8,66,0.00,CLR,,0.04,WeatherDisplay:10.37,2013-01-30 21:32:00,
2013-01-30 15:37:00,55.9,44.7,29.50,West,270,5.6,7.1,66,0.00,CLR,,0.04,WeatherDisplay:10.37,2013-01-30 21:37:00,
2013-01-30 15:42:00,55.9,44.7,29.50,WSW,248,5.4,7.4,66,0.00,CLR,,0.04,WeatherDisplay:10.37,2013-01-30 21:42:00,
2013-01-30 15:47:00,55.9,45.1,29.53,WSW,248,6.0,6.9,67,0.00,CLR,,0.04,WeatherDisplay:10.37,2013-01-30 21:47:00,
2013-01-30 15:52:00,55.9,45.1,29.53,WSW,248,4.7,8.1,67,0.00,CLR,,0.04,WeatherDisplay:10.37,2013-01-30 21:52:00,
2013-01-30 15:57:00,55.9,45.5,29.53,West,270,5.4,8.1,68,0.00,CLR,,0.04,WeatherDisplay:10.37,2013-01-30 21:57:00,
2013-01-30 16:02:00,55.9,45.9,29.50,West,270,4.9,6.9,69,0.00,CLR,,0.04,WeatherDisplay:10.37,2013-01-30 22:02:00,
2013-01-30 16:07:00,56.1,46.5,29.50,SW,225,7.8,10.0,70,0.00,CLR,,0.04,WeatherDisplay:10.37,2013-01-30 22:07:00,
2013-01-30 16:12:00,56.1,46.5,29.50,WSW,248,6.0,8.1,70,0.00,CLR,,0.04,WeatherDisplay:10.37,2013-01-30 22:12:00,
2013-01-30 16:17:00,56.1,46.1,29.53,WSW,248,6.4,8.1,69,0.00,CLR,,0.04,WeatherDisplay:10.37,2013-01-30 22:17:00,
2013-01-30 16:22:00,56.3,45.9,29.53,WSW,248,7.6,10.4,68,0.00,CLR,,0.04,WeatherDisplay:10.37,2013-01-30 22:22:00,
2013-01-30 16:27:00,56.3,45.1,29.53,WSW,248,6.7,11.5,66,0.00,CLR,,0.04,WeatherDisplay:10.37,2013-01-30 22:27:00,
2013-01-30 16:32:00,56.3,44.7,29.53,WSW,248,6.4,8.1,65,0.00,CLR,,0.04,WeatherDisplay:10.37,2013-01-30 22:32:00,
2013-01-30 16:37:00,56.3,44.3,29.53,WSW,248,7.8,8.7,64,0.00,CLR,,0.04,WeatherDisplay:10.37,2013-01-30 22:37:00,
2013-01-30 16:42:00,56.3,43.9,29.53,WSW,248,6.0,9.2,63,0.00,CLR,,0.04,WeatherDisplay:10.37,2013-01-30 22:42:00,
2013-01-30 16:48:00,56.3,42.6,29.56,West,270,7.4,9.8,60,0.00,CLR,,0.04,WeatherDisplay:10.37,2013-01-30 22:48:00,
2013-01-30 16:53:00,56.3,42.1,29.56,West,270,7.8,10.4,59,0.00,CLR,,0.04,WeatherDisplay:10.37,2013-01-30 22:53:00,
2013-01-30 16:58:00,56.3,41.7,29.56,WSW,248,7.6,9.2,58,0.00,CLR,,0.04,WeatherDisplay:10.37,2013-01-30 22:58:00,
2013-01-30 17:03:00,56.3,40.8,29.53,West,270,7.4,9.8,56,0.00,CLR,,0.04,WeatherDisplay:10.37,2013-01-30 23:03:00,
2013-01-30 17:08:00,56.5,39.5,29.53,West,270,9.0,10.4,53,0.00,CLR,,0.04,WeatherDisplay:10.37,2013-01-30 23:08:00,
2013-01-30 17:13:00,56.3,39.4,29.53,WSW,248,7.1,8.5,53,0.00,CLR,,0.04,WeatherDisplay:10.37,2013-01-30 23:13:00,
2013-01-30 17:18:00,56.5,37.0,29.56,West,270,9.8,12.8,48,0.00,CLR,,0.04,WeatherDisplay:10.37,2013-01-30 23:18:00,
2013-01-30 17:23:00,56.3,36.3,29.56,WSW,248,8.5,9.2,47,0.00,CLR,,0.04,WeatherDisplay:10.37,2013-01-30 23:23:00,
2013-01-30 17:28:00,56.3,35.8,29.56,West,270,9.4,12.7,46,0.00,CLR,,0.04,WeatherDisplay:10.37,2013-01-30 23:28:00,
2013-01-30 17:33:00,56.3,34.1,29.56,West,270,8.7,12.7,43,0.00,CLR,,0.04,WeatherDisplay:10.37,2013-01-30 23:33:00,
2013-01-30 17:38:00,56.1,32.1,29.56,West,270,6.7,9.2,40,0.00,CLR,,0.04,WeatherDisplay:10.37,2013-01-30 23:38:00,
2013-01-30 17:43:00,55.9,31.9,29.56,WSW,248,8.5,9.2,40,0.00,CLR,,0.04,WeatherDisplay:10.37,2013-01-30 23:43:00,
2013-01-30 17:48:00,55.6,31.0,29.56,WNW,292,7.4,10.7,39,0.00,CLR,,0.04,WeatherDisplay:10.37,2013-01-30 23:48:00,
2013-01-30 17:53:00,55.4,30.2,29.56,West,270,7.4,10.4,38,0.00,CLR,,0.04,WeatherDisplay:10.37,2013-01-30 23:53:00,
2013-01-30 17:58:00,55.2,30.0,29.56,West,270,6.9,10.4,38,0.00,CLR,,0.04,WeatherDisplay:10.37,2013-01-30 23:58:00,
2013-01-30 18:03:00,55.0,29.9,29.59,SW,225,5.4,12.7,38,0.00,CLR,,0.04,WeatherDisplay:10.37,2013-01-31 00:03:00,
2013-01-30 18:08:00,54.7,30.2,29.59,WSW,248,6.2,8.5,39,0.00,CLR,,0.04,WeatherDisplay:10.37,2013-01-31 00:08:00,
2013-01-30 18:13:00,54.7,30.2,29.59,West,270,6.7,8.7,39,0.00,CLR,,0.04,WeatherDisplay:10.37,2013-01-31 00:13:00,
2013-01-30 18:18:00,54.3,29.9,29.62,West,270,7.1,9.4,39,0.00,CLR,,0.04,WeatherDisplay:10.37,2013-01-31 00:18:00,
2013-01-30 18:23:00,54.5,28.7,29.62,WNW,292,7.6,12.1,37,0.00,CLR,,0.04,WeatherDisplay:10.37,2013-01-31 00:23:00,
2013-01-30 18:28:00,54.5,28.7,29.62,WNW,292,9.4,10.4,37,0.00,CLR,,0.04,WeatherDisplay:10.37,2013-01-31 00:28:00,
2013-01-30 18:33:00,54.3,28.6,29.62,WNW,292,7.1,9.7,37,0.00,CLR,,0.04,WeatherDisplay:10.37,2013-01-31 00:33:00,
2013-01-30 18:38:00,54.0,28.3,29.62,West,270,6.4,8.1,37,0.00,CLR,,0.04,WeatherDisplay:10.37,2013-01-31 00:38:00,
2013-01-30 18:43:00,53.6,27.9,29.62,West,270,4.9,6.4,37,0.00,CLR,,0.04,WeatherDisplay:10.37,2013-01-31 00:43:00,
2013-01-30 18:48:00,53.4,28.4,29.62,West,270,4.9,6.2,38,0.00,CLR,,0.04,WeatherDisplay:10.37,2013-01-31 00:48:00,
2013-01-30 18:53:00,53.2,27.6,29.62,WNW,292,5.9,6.9,37,0.00,CLR,,0.04,WeatherDisplay:10.37,2013-01-31 00:53:00,
2013-01-30 18:58:00,53.1,27.4,29.62,WNW,292,4.5,5.9,37,0.00,CLR,,0.04,WeatherDisplay:10.37,2013-01-31 00:58:00,
2013-01-30 19:04:00,52.9,27.9,29.62,WNW,292,3.8,6.9,38,0.00,CLR,,0.04,WeatherDisplay:10.37,2013-01-31 01:04:00,
2013-01-30 19:09:00,52.5,27.0,29.62,WNW,292,4.7,5.8,37,0.00,CLR,,0.04,WeatherDisplay:10.37,2013-01-31 01:09:00,
2013-01-30 19:14:00,52.3,26.8,29.62,West,270,4.5,6.4,37,0.00,CLR,,0.04,WeatherDisplay:10.37,2013-01-31 01:14:00,
2013-01-30 19:19:00,52.5,27.0,29.65,West,270,8.7,9.7,37,0.00,CLR,,0.04,WeatherDisplay:10.37,2013-01-31 01:19:00,
2013-01-30 19:24:00,52.7,26.5,29.65,WNW,292,8.1,15.0,36,0.00,CLR,,0.04,WeatherDisplay:10.37,2013-01-31 01:24:00,
2013-01-30 19:29:00,52.5,26.3,29.65,WNW,292,7.4,10.4,36,0.00,CLR,,0.04,WeatherDisplay:10.37,2013-01-31 01:29:00,
2013-01-30 19:34:00,52.5,26.3,29.65,West,270,10.5,13.8,36,0.00,CLR,,0.04,WeatherDisplay:10.37,2013-01-31 01:34:00,
2013-01-30 19:39:00,52.5,25.6,29.65,West,270,9.7,13.8,35,0.00,CLR,,0.04,WeatherDisplay:10.37,2013-01-31 01:39:00,
2013-01-30 19:44:00,52.3,24.8,29.65,West,270,11.2,15.0,34,0.00,CLR,,0.04,WeatherDisplay:10.37,2013-01-31 01:44:00,
2013-01-30 19:49:00,52.0,25.1,29.65,NW,315,7.4,12.7,35,0.00,CLR,,0.04,WeatherDisplay:10.37,2013-01-31 01:49:00,
2013-01-30 19:55:00,51.8,25.0,29.65,WNW,292,6.4,9.2,35,0.00,CLR,,0.04,WeatherDisplay:10.37,2013-01-31 01:55:00,
2013-01-30 20:01:00,51.6,24.8,29.65,WSW,248,10.2,12.1,35,0.00,CLR,,0.04,WeatherDisplay:10.37,2013-01-31 02:01:00,
2013-01-30 20:06:00,51.4,25.3,29.68,WNW,292,9.0,12.3,36,0.00,CLR,,0.04,WeatherDisplay:10.37,2013-01-31 02:06:00,
2013-01-30 20:11:00,51.3,25.2,29.68,WNW,292,7.6,12.7,36,0.00,CLR,,0.04,WeatherDisplay:10.37,2013-01-31 02:11:00,
2013-01-30 20:17:00,51.3,25.2,29.68,West,270,8.1,11.8,36,0.00,CLR,,0.04,WeatherDisplay:10.37,2013-01-31 02:17:00,
2013-01-30 20:22:00,50.9,24.9,29.68,NW,315,8.7,9.2,36,0.00,CLR,,0.04,WeatherDisplay:10.37,2013-01-31 02:22:00,
2013-01-30 20:27:00,50.9,24.9,29.68,WNW,292,9.2,12.7,36,0.00,CLR,,0.04,WeatherDisplay:10.37,2013-01-31 02:27:00,
2013-01-30 20:32:00,50.7,24.7,29.71,WNW,292,8.1,15.0,36,0.00,CLR,,0.04,WeatherDisplay:10.37,2013-01-31 02:32:00,
2013-01-30 20:38:00,50.4,25.0,29.71,WNW,292,9.2,11.5,37,0.00,CLR,,0.04,WeatherDisplay:10.37,2013-01-31 02:38:00,
2013-01-30 20:43:00,50.2,24.9,29.71,NW,315,6.0,10.4,37,0.00,CLR,,0.04,WeatherDisplay:10.37,2013-01-31 02:43:00,
2013-01-30 20:48:00,49.8,25.2,29.71,WNW,292,3.6,5.8,38,0.00,CLR,,0.04,WeatherDisplay:10.37,2013-01-31 02:48:00,
2013-01-30 20:53:00,49.5,24.9,29.71,NW,315,6.9,7.8,38,0.00,CLR,,0.04,WeatherDisplay:10.37,2013-01-31 02:53:00,
2013-01-30 20:58:00,49.5,24.2,29.71,NNW,338,6.7,10.4,37,0.00,CLR,,0.04,WeatherDisplay:10.37,2013-01-31 02:58:00,
2013-01-30 21:03:00,49.3,24.1,29.74,NW,315,10.2,13.8,37,0.00,CLR,,0.04,WeatherDisplay:10.37,2013-01-31 03:03:00,
2013-01-30 21:08:00,49.1,23.3,29.74,WNW,292,9.0,15.2,36,0.00,CLR,,0.04,WeatherDisplay:10.37,2013-01-31 03:08:00,
2013-01-30 21:13:00,48.9,23.1,29.74,NW,315,11.8,15.4,36,0.00,CLR,,0.04,WeatherDisplay:10.37,2013-01-31 03:13:00,
2013-01-30 21:18:00,48.7,22.3,29.74,West,270,14.7,15.0,35,0.00,CLR,,0.04,WeatherDisplay:10.37,2013-01-31 03:18:00,
2013-01-30 21:23:00,48.6,20.7,29.74,West,270,12.5,15.9,33,0.00,CLR,,0.04,WeatherDisplay:10.37,2013-01-31 03:23:00,
2013-01-30 21:28:00,48.2,20.4,29.74,WNW,292,12.1,13.8,33,0.00,CLR,,0.04,WeatherDisplay:10.37,2013-01-31 03:28:00,
2013-01-30 21:33:00,48.0,21.6,29.74,NW,315,8.7,12.5,35,0.00,CLR,,0.04,WeatherDisplay:10.37,2013-01-31 03:33:00,
2013-01-30 21:38:00,47.7,19.9,29.74,NW,315,10.5,13.8,33,0.00,CLR,,0.04,WeatherDisplay:10.37,2013-01-31 03:38:00,
2013-01-30 21:43:00,47.5,19.8,29.74,WNW,292,15.9,21.9,33,0.00,CLR,,0.04,WeatherDisplay:10.37,2013-01-31 03:43:00,
2013-01-30 21:48:00,47.1,20.2,29.74,NNW,338,9.2,12.7,34,0.00,CLR,,0.04,WeatherDisplay:10.37,2013-01-31 03:48:00,
2013-01-30 21:53:00,46.9,18.6,29.74,North,0,10.0,13.2,32,0.00,CLR,,0.04,WeatherDisplay:10.37,2013-01-31 03:53:00,
2013-01-30 21:58:00,46.8,16.1,29.74,NW,315,22.8,29.1,29,0.00,CLR,,0.04,WeatherDisplay:10.37,2013-01-31 03:58:00,
2013-01-30 22:03:00,46.4,15.8,29.77,North,0,13.0,17.3,29,0.00,CLR,,0.04,WeatherDisplay:10.37,2013-01-31 04:03:00,
2013-01-30 22:08:00,46.2,15.7,29.77,NNW,338,11.2,18.4,29,0.00,CLR,,0.04,WeatherDisplay:10.37,2013-01-31 04:08:00,
2013-01-30 22:13:00,46.0,15.5,29.77,NW,315,14.7,20.4,29,0.00,CLR,,0.04,WeatherDisplay:10.37,2013-01-31 04:13:00,
2013-01-30 22:19:00,45.9,15.3,29.77,NW,315,11.8,16.1,29,0.00,CLR,,0.04,WeatherDisplay:10.37,2013-01-31 04:19:00,
2013-01-30 22:24:00,45.7,16.0,29.77,NNW,338,11.8,13.8,30,0.00,CLR,,0.04,WeatherDisplay:10.37,2013-01-31 04:24:00,
2013-01-30 22:29:00,45.5,15.8,29.77,WNW,292,11.4,13.8,30,0.00,CLR,,0.04,WeatherDisplay:10.37,2013-01-31 04:29:00,
2013-01-30 22:34:00,45.1,15.5,29.77,NNW,338,8.7,10.9,30,0.00,CLR,,0.04,WeatherDisplay:10.37,2013-01-31 04:34:00,
2013-01-30 22:39:00,45.0,15.3,29.77,WNW,292,4.9,9.7,30,0.00,CLR,,0.04,WeatherDisplay:10.37,2013-01-31 04:39:00,
2013-01-30 22:44:00,44.8,15.2,29.77,NNW,338,7.6,9.2,30,0.00,CLR,,0.04,WeatherDisplay:10.37,2013-01-31 04:44:00,
2013-01-30 22:49:00,44.8,15.2,29.77,NW,315,9.4,10.9,30,0.00,CLR,,0.04,WeatherDisplay:10.37,2013-01-31 04:49:00,
2013-01-30 22:54:00,44.6,15.8,29.77,NW,315,6.7,9.8,31,0.00,CLR,,0.04,WeatherDisplay:10.37,2013-01-31 04:54:00,
2013-01-30 22:59:00,44.6,15.8,29.77,NNW,338,4.7,10.4,31,0.00,CLR,,0.04,WeatherDisplay:10.37,2013-01-31 04:59:00,
2013-01-30 23:02:00,44.2,15.5,29.80,NNW,338,9.2,10.9,31,0.00,CLR,,0.04,WeatherDisplay:10.37,2013-01-31 05:02:00,
2013-01-30 23:03:00,44.2,15.5,29.80,North,0,9.2,11.5,31,0.00,CLR,,0.04,WeatherDisplay:10.37,2013-01-31 05:03:00,
2013-01-30 23:08:00,44.1,16.0,29.80,NW,315,5.9,8.5,32,0.00,CLR,,0.04,WeatherDisplay:10.37,2013-01-31 05:08:00,
2013-01-30 23:09:00,44.1,16.0,29.80,NNW,338,9.0,12.3,32,0.00,CLR,,0.04,WeatherDisplay:10.37,2013-01-31 05:09:00,
2013-01-30 23:11:00,44.2,16.2,29.80,WNW,292,7.6,10.4,32,0.00,CLR,,0.04,WeatherDisplay:10.37,2013-01-31 05:11:00,
2013-01-30 23:16:00,44.1,16.0,29.80,WNW,292,9.7,11.5,32,0.00,CLR,,0.04,WeatherDisplay:10.37,2013-01-31 05:16:00,
2013-01-30 23:21:00,43.9,15.9,29.77,NW,315,7.6,10.4,32,0.00,CLR,,0.04,WeatherDisplay:10.37,2013-01-31 05:21:00,
2013-01-30 23:26:00,43.9,15.9,29.77,WNW,292,8.1,10.5,32,0.00,CLR,,0.04,WeatherDisplay:10.37,2013-01-31 05:26:00,
2013-01-30 23:31:00,43.9,15.9,29.77,NW,315,9.2,15.0,32,0.00,CLR,,0.04,WeatherDisplay:10.37,2013-01-31 05:31:00,
2013-01-30 23:36:00,43.7,15.7,29.80,NW,315,9.0,12.7,32,0.00,CLR,,0.04,WeatherDisplay:10.37,2013-01-31 05:36:00,
2013-01-30 23:41:00,43.7,15.7,29.80,NNW,338,9.7,16.3,32,0.00,CLR,,0.04,WeatherDisplay:10.37,2013-01-31 05:41:00,
2013-01-30 23:46:00,43.7,15.7,29.80,NNW,338,9.4,13.5,32,0.00,CLR,,0.04,WeatherDisplay:10.37,2013-01-31 05:46:00,
2013-01-30 23:51:00,43.5,15.6,29.80,North,0,10.7,11.5,32,0.00,CLR,,0.04,WeatherDisplay:10.37,2013-01-31 05:51:00,
2013-01-30 23:56:00,43.5,15.6,29.80,WNW,292,10.7,12.7,32,0.00,CLR,,0.04,WeatherDisplay:10.37,2013-01-31 05:56:00,